Time,TemperatureF,DewpointF,PressureIn,WindDirection,WindDirectionDegrees,WindSpeedMPH,WindSpeedGustMPH,Humidity,HourlyPrecipIn,Conditions,Clouds,dailyrainin,SoftwareType,DateUTC
2013-03-19 00:02:00,10.8,1.4,28.98,West,270,6.0,13.0,65,0.00,,,0.00,meteohub,2013-03-19 05:02:00,
2013-03-19 00:08:00,10.4,1.0,28.98,NNW,338,9.0,13.0,65,0.00,,,0.00,meteohub,2013-03-19 05:08:00,
2013-03-19 00:13:00,10.4,1.0,28.98,WSW,248,8.0,17.0,65,0.00,,,0.00,meteohub,2013-03-19 05:13:00,
2013-03-19 00:18:00,10.2,0.9,28.95,West,270,10.0,17.0,65,0.00,,,0.00,meteohub,2013-03-19 05:18:00,
2013-03-19 00:23:00,10.2,0.9,28.95,WNW,292,10.0,16.0,65,0.00,,,0.00,meteohub,2013-03-19 05:23:00,
2013-03-19 00:28:00,10.0,0.7,28.95,WNW,292,5.0,17.0,65,0.00,,,0.00,meteohub,2013-03-19 05:28:00,
2013-03-19 00:33:00,10.0,0.7,28.95,WSW,248,8.0,17.0,65,0.00,,,0.00,meteohub,2013-03-19 05:33:00,
2013-03-19 00:38:00,9.9,0.5,28.95,WNW,292,11.0,17.0,65,0.00,,,0.00,meteohub,2013-03-19 05:38:00,
2013-03-19 00:43:00,9.9,0.5,28.95,NW,315,13.0,13.0,65,0.00,,,0.00,meteohub,2013-03-19 05:43:00,
2013-03-19 00:48:00,9.7,0.3,28.98,West,270,17.0,18.0,65,0.00,,,0.00,meteohub,2013-03-19 05:48:00,
2013-03-19 00:53:00,9.7,0.3,28.98,West,270,8.0,18.0,65,0.00,,,0.00,meteohub,2013-03-19 05:53:00,
2013-03-19 00:58:00,9.5,0.1,28.98,NW,315,6.0,17.0,65,0.00,,,0.00,meteohub,2013-03-19 05:58:00,
2013-03-19 01:03:00,9.5,0.1,28.98,West,270,14.0,17.0,65,0.00,,,0.00,meteohub,2013-03-19 06:03:00,
2013-03-19 01:08:00,9.3,0.0,28.98,WNW,292,4.0,14.0,65,0.00,,,0.00,meteohub,2013-03-19 06:08:00,
2013-03-19 01:13:00,9.3,0.0,28.98,WNW,292,8.0,14.0,65,0.00,,,0.00,meteohub,2013-03-19 06:13:00,
2013-03-19 01:18:00,9.3,0.0,28.98,WNW,292,13.0,14.0,65,0.00,,,0.00,meteohub,2013-03-19 06:18:00,
2013-03-19 01:23:00,9.1,-0.2,28.98,WNW,292,8.0,13.0,65,0.00,,,0.00,meteohub,2013-03-19 06:23:00,
2013-03-19 01:28:00,9.1,-0.2,28.98,WNW,292,11.0,13.0,65,0.00,,,0.00,meteohub,2013-03-19 06:28:00,
2013-03-19 01:33:00,9.1,-0.2,28.98,WNW,292,8.0,13.0,65,0.00,,,0.00,meteohub,2013-03-19 06:33:00,
2013-03-19 01:38:00,9.1,-0.2,28.98,WNW,292,9.0,15.0,65,0.00,,,0.00,meteohub,2013-03-19 06:38:00,
2013-03-19 01:43:00,9.1,-0.2,28.98,WNW,292,15.0,17.0,65,0.00,,,0.00,meteohub,2013-03-19 06:43:00,
2013-03-19 01:49:00,9.1,-0.2,28.98,WNW,292,10.0,17.0,65,0.00,,,0.00,meteohub,2013-03-19 06:49:00,
2013-03-19 01:53:00,9.0,-0.4,28.98,WNW,292,11.0,17.0,65,0.00,,,0.00,meteohub,2013-03-19 06:53:00,
2013-03-19 01:59:00,9.0,-0.4,28.98,West,270,8.0,16.0,65,0.00,,,0.00,meteohub,2013-03-19 06:59:00,
2013-03-19 02:04:00,9.0,-0.4,28.98,West,270,5.0,15.0,65,0.00,,,0.00,meteohub,2013-03-19 07:04:00,
2013-03-19 02:09:00,8.8,-0.6,28.98,WNW,292,6.0,16.0,65,0.00,,,0.00,meteohub,2013-03-19 07:09:00,
2013-03-19 02:14:00,8.8,-0.6,28.98,WSW,248,6.0,16.0,65,0.00,,,0.00,meteohub,2013-03-19 07:14:00,
2013-03-19 02:19:00,8.6,-0.8,29.01,West,270,8.0,16.0,65,0.00,,,0.00,meteohub,2013-03-19 07:19:00,
2013-03-19 02:24:00,8.6,-0.8,29.01,West,270,12.0,15.0,65,0.00,,,0.00,meteohub,2013-03-19 07:24:00,
2013-03-19 02:29:00,8.6,-0.8,29.01,SE,135,6.0,15.0,65,0.00,,,0.00,meteohub,2013-03-19 07:29:00,
2013-03-19 02:34:00,8.6,-0.8,29.01,WNW,292,11.0,15.0,65,0.00,,,0.00,meteohub,2013-03-19 07:34:00,
2013-03-19 02:39:00,8.6,-0.8,29.01,NW,315,11.0,15.0,65,0.00,,,0.00,meteohub,2013-03-19 07:39:00,
2013-03-19 02:44:00,8.4,-0.9,29.01,WNW,292,8.0,15.0,65,0.00,,,0.00,meteohub,2013-03-19 07:44:00,
2013-03-19 02:49:00,8.4,-0.9,29.01,West,270,6.0,15.0,65,0.00,,,0.00,meteohub,2013-03-19 07:49:00,
2013-03-19 02:55:00,8.2,-1.1,29.01,WNW,292,13.0,13.0,65,0.00,,,0.00,meteohub,2013-03-19 07:55:00,
2013-03-19 03:00:00,8.2,-1.1,29.01,WNW,292,6.0,15.0,65,0.00,,,0.00,meteohub,2013-03-19 08:00:00,
2013-03-19 03:05:00,8.4,-0.9,29.01,WNW,292,10.0,15.0,65,0.00,,,0.00,meteohub,2013-03-19 08:05:00,
2013-03-19 03:10:00,8.2,-1.1,29.01,NW,315,6.0,13.0,65,0.00,,,0.00,meteohub,2013-03-19 08:10:00,
2013-03-19 03:15:00,8.2,-1.1,29.01,WNW,292,17.0,17.0,65,0.00,,,0.00,meteohub,2013-03-19 08:15:00,
2013-03-19 03:20:00,8.2,-1.1,29.01,WNW,292,10.0,17.0,65,0.00,,,0.00,meteohub,2013-03-19 08:20:00,
2013-03-19 03:25:00,8.1,-1.3,29.01,WNW,292,7.0,17.0,65,0.00,,,0.00,meteohub,2013-03-19 08:25:00,
2013-03-19 03:30:00,8.2,-1.1,29.04,West,270,11.0,17.0,65,0.00,,,0.00,meteohub,2013-03-19 08:30:00,
2013-03-19 03:35:00,8.1,-1.3,29.04,WNW,292,9.0,17.0,65,0.00,,,0.00,meteohub,2013-03-19 08:35:00,
2013-03-19 03:40:00,8.1,-1.3,29.04,WNW,292,7.0,17.0,65,0.00,,,0.00,meteohub,2013-03-19 08:40:00,
2013-03-19 03:45:00,8.1,-1.3,29.04,West,270,10.0,12.0,65,0.00,,,0.00,meteohub,2013-03-19 08:45:00,
2013-03-19 03:51:00,8.1,-1.3,29.04,WNW,292,9.0,12.0,65,0.00,,,0.00,meteohub,2013-03-19 08:51:00,
2013-03-19 03:56:00,7.9,-1.5,29.04,WNW,292,8.0,12.0,65,0.00,,,0.00,meteohub,2013-03-19 08:56:00,
2013-03-19 04:01:00,8.1,-1.3,29.04,NW,315,8.0,12.0,65,0.00,,,0.00,meteohub,2013-03-19 09:01:00,
2013-03-19 04:06:00,8.1,-1.3,29.04,West,270,13.0,15.0,65,0.00,,,0.00,meteohub,2013-03-19 09:06:00,
2013-03-19 04:12:00,8.1,-1.3,29.04,West,270,6.0,15.0,65,0.00,,,0.00,meteohub,2013-03-19 09:12:00,
2013-03-19 04:17:00,8.1,-1.3,29.01,NNW,338,10.0,15.0,65,0.00,,,0.00,meteohub,2013-03-19 09:17:00,
2013-03-19 04:22:00,8.1,-1.3,29.01,WSW,248,5.0,13.0,65,0.00,,,0.00,meteohub,2013-03-19 09:22:00,
2013-03-19 04:27:00,8.1,-1.3,29.01,WNW,292,13.0,13.0,65,0.00,,,0.00,meteohub,2013-03-19 09:27:00,
2013-03-19 04:32:00,8.1,-1.3,29.01,WSW,248,6.0,15.0,65,0.00,,,0.00,meteohub,2013-03-19 09:32:00,
2013-03-19 04:37:00,7.9,-1.5,29.01,WNW,292,10.0,15.0,65,0.00,,,0.00,meteohub,2013-03-19 09:37:00,
2013-03-19 04:42:00,7.9,-1.5,29.01,WNW,292,6.0,15.0,65,0.00,,,0.00,meteohub,2013-03-19 09:42:00,
2013-03-19 04:47:00,7.9,-1.5,29.04,WNW,292,9.0,14.0,65,0.00,,,0.00,meteohub,2013-03-19 09:47:00,
2013-03-19 04:52:00,7.7,-1.7,29.04,WNW,292,11.0,14.0,65,0.00,,,0.00,meteohub,2013-03-19 09:52:00,
2013-03-19 04:57:00,7.7,-1.7,29.04,WNW,292,4.0,14.0,65,0.00,,,0.00,meteohub,2013-03-19 09:57:00,
2013-03-19 05:02:00,7.5,-1.8,29.04,West,270,6.0,14.0,65,0.00,,,0.00,meteohub,2013-03-19 10:02:00,
2013-03-19 05:07:00,7.5,-1.8,29.04,WNW,292,6.0,13.0,65,0.00,,,0.00,meteohub,2013-03-19 10:07:00,
2013-03-19 05:12:00,7.2,-2.0,29.04,WNW,292,6.0,13.0,65,0.00,,,0.00,meteohub,2013-03-19 10:12:00,
2013-03-19 05:17:00,7.2,-2.0,29.04,WNW,292,6.0,12.0,65,0.00,,,0.00,meteohub,2013-03-19 10:17:00,
2013-03-19 05:22:00,7.2,-2.0,29.04,NW,315,8.0,11.0,65,0.00,,,0.00,meteohub,2013-03-19 10:22:00,
2013-03-19 05:27:00,7.2,-2.0,29.04,WNW,292,11.0,13.0,65,0.00,,,0.00,meteohub,2013-03-19 10:27:00,
2013-03-19 05:32:00,7.2,-2.0,29.04,WNW,292,10.0,13.0,65,0.00,,,0.00,meteohub,2013-03-19 10:32:00,
2013-03-19 05:37:00,7.0,-2.2,29.04,NW,315,8.0,13.0,65,0.00,,,0.00,meteohub,2013-03-19 10:37:00,
2013-03-19 05:42:00,7.0,-2.2,29.04,WSW,248,9.0,13.0,65,0.00,,,0.00,meteohub,2013-03-19 10:42:00,
2013-03-19 05:47:00,6.8,-2.4,29.07,WNW,292,10.0,17.0,65,0.00,,,0.00,meteohub,2013-03-19 10:47:00,
2013-03-19 05:52:00,6.8,-2.4,29.07,NW,315,6.0,17.0,65,0.00,,,0.00,meteohub,2013-03-19 10:52:00,
2013-03-19 05:58:00,6.6,-2.6,29.07,West,270,4.0,11.0,65,0.00,,,0.00,meteohub,2013-03-19 10:58:00,
2013-03-19 06:03:00,6.4,-2.7,29.04,WNW,292,7.0,11.0,65,0.00,,,0.00,meteohub,2013-03-19 11:03:00,
2013-03-19 06:08:00,6.4,-2.7,29.04,WNW,292,6.0,10.0,65,0.00,,,0.00,meteohub,2013-03-19 11:08:00,
2013-03-19 06:13:00,6.4,-2.7,29.04,WNW,292,7.0,13.0,65,0.00,,,0.00,meteohub,2013-03-19 11:13:00,
2013-03-19 06:18:00,6.3,-2.9,29.10,West,270,9.0,13.0,65,0.00,,,0.00,meteohub,2013-03-19 11:18:00,
2013-03-19 06:23:00,6.3,-2.9,29.10,NW,315,6.0,13.0,65,0.00,,,0.00,meteohub,2013-03-19 11:23:00,
2013-03-19 06:28:00,6.3,-2.9,29.10,WNW,292,8.0,13.0,65,0.00,,,0.00,meteohub,2013-03-19 11:28:00,
2013-03-19 06:33:00,6.3,-2.9,29.10,WNW,292,8.0,12.0,65,0.00,,,0.00,meteohub,2013-03-19 11:33:00,
2013-03-19 06:38:00,6.1,-3.1,29.10,WNW,292,6.0,12.0,65,0.00,,,0.00,meteohub,2013-03-19 11:38:00,
2013-03-19 06:43:00,6.1,-3.1,29.10,WNW,292,9.0,11.0,65,0.00,,,0.00,meteohub,2013-03-19 11:43:00,
2013-03-19 06:49:00,6.1,-3.1,29.10,WNW,292,5.0,14.0,65,0.00,,,0.00,meteohub,2013-03-19 11:49:00,
2013-03-19 06:54:00,6.1,-3.1,29.10,WNW,292,10.0,14.0,65,0.00,,,0.00,meteohub,2013-03-19 11:54:00,
2013-03-19 06:59:00,6.1,-3.1,29.10,West,270,8.0,16.0,65,0.00,,,0.00,meteohub,2013-03-19 11:59:00,
2013-03-19 07:04:00,6.1,-3.1,29.13,West,270,5.0,16.0,65,0.00,,,0.00,meteohub,2013-03-19 12:04:00,
2013-03-19 07:09:00,5.9,-3.3,29.13,West,270,11.0,16.0,65,0.00,,,0.00,meteohub,2013-03-19 12:09:00,
2013-03-19 07:14:00,6.1,-3.1,29.13,NW,315,8.0,13.0,65,0.00,,,0.00,meteohub,2013-03-19 12:14:00,
2013-03-19 07:19:00,5.9,-3.3,29.13,WNW,292,4.0,13.0,65,0.00,,,0.00,meteohub,2013-03-19 12:19:00,
2013-03-19 07:24:00,5.9,-3.3,29.13,WNW,292,11.0,13.0,65,0.00,,,0.00,meteohub,2013-03-19 12:24:00,
2013-03-19 07:29:00,5.9,-3.3,29.13,WNW,292,7.0,12.0,65,0.00,,,0.00,meteohub,2013-03-19 12:29:00,
2013-03-19 07:34:00,5.9,-3.3,29.13,West,270,10.0,11.0,65,0.00,,,0.00,meteohub,2013-03-19 12:34:00,
2013-03-19 07:40:00,5.9,-3.3,29.13,WNW,292,10.0,11.0,65,0.00,,,0.00,meteohub,2013-03-19 12:40:00,
2013-03-19 07:45:00,6.1,-3.1,29.13,West,270,5.0,11.0,65,0.00,,,0.00,meteohub,2013-03-19 12:45:00,
2013-03-19 07:50:00,6.1,-3.1,29.13,WNW,292,11.0,12.0,65,0.00,,,0.00,meteohub,2013-03-19 12:50:00,
2013-03-19 07:55:00,6.4,-2.7,29.13,WNW,292,8.0,12.0,65,0.00,,,0.00,meteohub,2013-03-19 12:55:00,
2013-03-19 08:00:00,6.8,-2.4,29.16,WNW,292,5.0,13.0,65,0.00,,,0.00,meteohub,2013-03-19 13:00:00,
2013-03-19 08:05:00,7.0,-2.2,29.16,WNW,292,4.0,13.0,65,0.00,,,0.00,meteohub,2013-03-19 13:05:00,
2013-03-19 08:10:00,7.3,-2.0,29.16,WSW,248,8.0,13.0,65,0.00,,,0.00,meteohub,2013-03-19 13:10:00,
2013-03-19 08:15:00,7.5,-1.8,29.16,NNW,338,6.0,11.0,65,0.00,,,0.00,meteohub,2013-03-19 13:15:00,
2013-03-19 08:20:00,7.7,-1.7,29.16,NW,315,6.0,12.0,65,0.00,,,0.00,meteohub,2013-03-19 13:20:00,
2013-03-19 08:25:00,7.9,-1.5,29.16,NNW,338,3.0,12.0,65,0.00,,,0.00,meteohub,2013-03-19 13:25:00,
2013-03-19 08:30:00,8.2,-1.1,29.16,West,270,8.0,12.0,65,0.00,,,0.00,meteohub,2013-03-19 13:30:00,
2013-03-19 08:35:00,8.4,-0.9,29.16,WNW,292,8.0,11.0,65,0.00,,,0.00,meteohub,2013-03-19 13:35:00,
2013-03-19 08:40:00,8.6,-0.8,29.16,West,270,8.0,16.0,65,0.00,,,0.00,meteohub,2013-03-19 13:40:00,
2013-03-19 08:46:00,8.8,-0.6,29.16,NNW,338,8.0,16.0,65,0.00,,,0.00,meteohub,2013-03-19 13:46:00,
2013-03-19 08:51:00,9.1,-0.2,29.16,WNW,292,11.0,16.0,65,0.00,,,0.00,meteohub,2013-03-19 13:51:00,
2013-03-19 08:56:00,9.5,0.1,29.16,WNW,292,4.0,13.0,65,0.00,,,0.00,meteohub,2013-03-19 13:56:00,
2013-03-19 09:01:00,10.0,0.7,29.16,WNW,292,8.0,13.0,65,0.00,,,0.00,meteohub,2013-03-19 14:01:00,
2013-03-19 09:06:00,10.8,1.4,29.16,WNW,292,9.0,13.0,65,0.00,,,0.00,meteohub,2013-03-19 14:06:00,
2013-03-19 09:11:00,11.1,1.8,29.16,NW,315,9.0,13.0,65,0.00,,,0.00,meteohub,2013-03-19 14:11:00,
2013-03-19 09:16:00,10.9,1.6,29.16,NW,315,4.0,11.0,65,0.00,,,0.00,meteohub,2013-03-19 14:16:00,
2013-03-19 09:21:00,11.7,2.1,29.16,NW,315,11.0,11.0,65,0.00,,,0.00,meteohub,2013-03-19 14:21:00,
2013-03-19 09:26:00,12.2,2.7,29.16,WNW,292,7.0,11.0,65,0.00,,,0.00,meteohub,2013-03-19 14:26:00,
2013-03-19 09:32:00,12.4,2.8,29.19,West,270,6.0,11.0,65,0.00,,,0.00,meteohub,2013-03-19 14:32:00,
2013-03-19 09:37:00,12.2,2.7,29.19,West,270,6.0,12.0,65,0.00,,,0.00,meteohub,2013-03-19 14:37:00,
2013-03-19 09:42:00,12.0,2.5,29.19,WNW,292,6.0,12.0,65,0.00,,,0.00,meteohub,2013-03-19 14:42:00,
2013-03-19 09:47:00,12.4,2.8,29.19,WNW,292,10.0,13.0,65,0.00,,,0.00,meteohub,2013-03-19 14:47:00,
2013-03-19 09:52:00,12.6,3.0,29.19,WNW,292,7.0,13.0,65,0.00,,,0.00,meteohub,2013-03-19 14:52:00,
2013-03-19 09:57:00,13.8,4.3,29.19,West,270,5.0,13.0,65,0.00,,,0.00,meteohub,2013-03-19 14:57:00,
2013-03-19 10:02:00,14.5,-2.0,29.19,NW,315,6.0,13.0,47,0.00,,,0.00,meteohub,2013-03-19 15:02:00,
2013-03-19 10:07:00,14.0,-2.6,29.19,WNW,292,10.0,13.0,47,0.00,,,0.00,meteohub,2013-03-19 15:07:00,
2013-03-19 10:12:00,14.9,-1.7,29.19,West,270,11.0,13.0,47,0.00,,,0.00,meteohub,2013-03-19 15:12:00,
2013-03-19 10:17:00,16.3,-0.8,29.22,West,270,9.0,13.0,46,0.00,,,0.00,meteohub,2013-03-19 15:17:00,
2013-03-19 10:22:00,15.3,-1.8,29.22,West,270,9.0,11.0,46,0.00,,,0.00,meteohub,2013-03-19 15:22:00,
2013-03-19 10:27:00,14.2,-2.7,29.22,NW,315,13.0,13.0,46,0.00,,,0.00,meteohub,2013-03-19 15:27:00,
2013-03-19 10:32:00,14.2,-2.7,29.19,NW,315,5.0,15.0,46,0.00,,,0.00,meteohub,2013-03-19 15:32:00,
2013-03-19 10:37:00,14.5,-2.4,29.19,West,270,8.0,15.0,46,0.00,,,0.00,meteohub,2013-03-19 15:37:00,
2013-03-19 10:42:00,14.9,-2.2,29.19,WNW,292,6.0,15.0,46,0.00,,,0.00,meteohub,2013-03-19 15:42:00,
2013-03-19 10:47:00,15.1,-2.0,29.22,WNW,292,9.0,13.0,46,0.00,,,0.00,meteohub,2013-03-19 15:47:00,
2013-03-19 10:53:00,16.2,-1.5,29.22,WNW,292,5.0,13.0,45,0.00,,,0.00,meteohub,2013-03-19 15:53:00,
2013-03-19 10:58:00,17.2,0.0,29.22,West,270,8.0,13.0,46,0.00,,,0.00,meteohub,2013-03-19 15:58:00,
2013-03-19 11:03:00,17.6,0.0,29.22,West,270,6.0,13.0,45,0.00,,,0.00,meteohub,2013-03-19 16:03:00,
2013-03-19 11:08:00,18.1,0.0,29.22,WNW,292,6.0,13.0,44,0.00,,,0.00,meteohub,2013-03-19 16:08:00,
2013-03-19 11:14:00,17.6,0.0,29.22,West,270,11.0,13.0,45,0.00,,,0.00,meteohub,2013-03-19 16:14:00,
2013-03-19 11:19:00,17.6,0.0,29.22,WNW,292,6.0,13.0,45,0.00,,,0.00,meteohub,2013-03-19 16:19:00,
2013-03-19 11:24:00,18.0,-0.2,29.22,WNW,292,10.0,16.0,44,0.00,,,0.00,meteohub,2013-03-19 16:24:00,
2013-03-19 11:29:00,19.2,0.9,29.22,West,270,6.0,16.0,44,0.00,,,0.00,meteohub,2013-03-19 16:29:00,
2013-03-19 11:34:00,19.0,0.7,29.22,West,270,5.0,16.0,44,0.00,,,0.00,meteohub,2013-03-19 16:34:00,
2013-03-19 11:39:00,19.6,0.7,29.22,West,270,13.0,14.0,43,0.00,,,0.00,meteohub,2013-03-19 16:39:00,
2013-03-19 11:44:00,19.0,0.7,29.22,WNW,292,7.0,13.0,44,0.00,,,0.00,meteohub,2013-03-19 16:44:00,
2013-03-19 11:49:00,20.1,1.8,29.22,WNW,292,5.0,13.0,44,0.00,,,0.00,meteohub,2013-03-19 16:49:00,
2013-03-19 11:54:00,19.6,0.7,29.22,NNW,338,6.0,15.0,43,0.00,,,0.00,meteohub,2013-03-19 16:54:00,
2013-03-19 11:59:00,19.4,1.0,29.22,WNW,292,8.0,15.0,44,0.00,,,0.00,meteohub,2013-03-19 16:59:00,
2013-03-19 12:05:00,20.1,1.2,29.22,NNW,338,5.0,15.0,43,0.00,,,0.00,meteohub,2013-03-19 17:05:00,
2013-03-19 12:10:00,20.3,1.4,29.22,WNW,292,9.0,14.0,43,0.00,,,0.00,meteohub,2013-03-19 17:10:00,
2013-03-19 12:15:00,20.1,1.2,29.22,West,270,6.0,12.0,43,0.00,,,0.00,meteohub,2013-03-19 17:15:00,
2013-03-19 12:20:00,21.4,2.5,29.22,WSW,248,11.0,12.0,43,0.00,,,0.00,meteohub,2013-03-19 17:20:00,
2013-03-19 12:25:00,21.0,2.1,29.22,NNW,338,8.0,15.0,43,0.00,,,0.00,meteohub,2013-03-19 17:25:00,
2013-03-19 12:30:00,21.4,1.9,29.22,West,270,11.0,15.0,42,0.00,,,0.00,meteohub,2013-03-19 17:30:00,
2013-03-19 12:35:00,21.2,2.3,29.22,WNW,292,8.0,15.0,43,0.00,,,0.00,meteohub,2013-03-19 17:35:00,
2013-03-19 12:40:00,21.7,2.3,29.22,West,270,6.0,16.0,42,0.00,,,0.00,meteohub,2013-03-19 17:40:00,
2013-03-19 12:45:00,21.9,2.3,29.22,WSW,248,10.0,16.0,42,0.00,,,0.00,meteohub,2013-03-19 17:45:00,
2013-03-19 12:51:00,21.9,2.3,29.22,WSW,248,8.0,15.0,42,0.00,,,0.00,meteohub,2013-03-19 17:51:00,
2013-03-19 12:56:00,21.6,2.1,29.22,WNW,292,8.0,13.0,42,0.00,,,0.00,meteohub,2013-03-19 17:56:00,
2013-03-19 13:01:00,22.8,3.2,29.22,WNW,292,6.0,13.0,42,0.00,,,0.00,meteohub,2013-03-19 18:01:00,
2013-03-19 13:06:00,22.5,2.8,29.22,West,270,7.0,13.0,42,0.00,,,0.00,meteohub,2013-03-19 18:06:00,
2013-03-19 13:12:00,23.2,3.6,29.22,NNW,338,5.0,13.0,42,0.00,,,0.00,meteohub,2013-03-19 18:12:00,
2013-03-19 13:17:00,22.8,3.2,29.22,West,270,11.0,13.0,42,0.00,,,0.00,meteohub,2013-03-19 18:17:00,
2013-03-19 13:22:00,23.9,4.1,29.22,WNW,292,14.0,14.0,42,0.00,,,0.00,meteohub,2013-03-19 18:22:00,
2013-03-19 13:27:00,23.7,4.1,29.22,WNW,292,9.0,14.0,42,0.00,,,0.00,meteohub,2013-03-19 18:27:00,
2013-03-19 13:32:00,22.8,3.2,29.22,WNW,292,9.0,14.0,42,0.00,,,0.00,meteohub,2013-03-19 18:32:00,
2013-03-19 13:37:00,23.2,3.6,29.22,WNW,292,6.0,15.0,42,0.00,,,0.00,meteohub,2013-03-19 18:37:00,
2013-03-19 13:42:00,23.5,3.9,29.22,West,270,6.0,15.0,42,0.00,,,0.00,meteohub,2013-03-19 18:42:00,
2013-03-19 13:47:00,23.2,2.5,29.22,NW,315,4.0,13.0,40,0.00,,,0.00,meteohub,2013-03-19 18:47:00,
2013-03-19 13:52:00,24.4,4.6,29.22,WNW,292,9.0,13.0,42,0.00,,,0.00,meteohub,2013-03-19 18:52:00,
2013-03-19 13:57:00,24.4,4.6,29.22,West,270,11.0,13.0,42,0.00,,,0.00,meteohub,2013-03-19 18:57:00,
2013-03-19 14:02:00,24.1,3.7,29.22,West,270,7.0,13.0,41,0.00,,,0.00,meteohub,2013-03-19 19:02:00,
2013-03-19 14:07:00,23.2,2.5,29.22,WNW,292,10.0,13.0,40,0.00,,,0.00,meteohub,2013-03-19 19:07:00,
2013-03-19 14:12:00,23.9,3.7,29.22,West,270,9.0,13.0,41,0.00,,,0.00,meteohub,2013-03-19 19:12:00,
2013-03-19 14:17:00,23.4,2.7,29.22,WNW,292,12.0,13.0,40,0.00,,,0.00,meteohub,2013-03-19 19:17:00,
2013-03-19 14:22:00,23.2,1.9,29.22,WNW,292,4.0,15.0,39,0.00,,,0.00,meteohub,2013-03-19 19:22:00,
2013-03-19 14:28:00,23.5,2.8,29.22,WNW,292,7.0,15.0,40,0.00,,,0.00,meteohub,2013-03-19 19:28:00,
2013-03-19 14:33:00,24.4,3.6,29.22,WNW,292,5.0,15.0,40,0.00,,,0.00,meteohub,2013-03-19 19:33:00,
2013-03-19 14:38:00,24.4,4.1,29.22,WNW,292,10.0,15.0,41,0.00,,,0.00,meteohub,2013-03-19 19:38:00,
2013-03-19 14:43:00,24.6,3.7,29.22,NW,315,9.0,15.0,40,0.00,,,0.00,meteohub,2013-03-19 19:43:00,
2013-03-19 14:48:00,24.1,2.7,29.22,West,270,6.0,15.0,39,0.00,,,0.00,meteohub,2013-03-19 19:48:00,
2013-03-19 14:53:00,24.4,3.6,29.22,West,270,6.0,17.0,40,0.00,,,0.00,meteohub,2013-03-19 19:53:00,
2013-03-19 14:58:00,24.6,4.3,29.22,WSW,248,8.0,17.0,41,0.00,,,0.00,meteohub,2013-03-19 19:58:00,
2013-03-19 15:04:00,25.2,3.7,29.22,West,270,8.0,17.0,39,0.00,,,0.00,meteohub,2013-03-19 20:04:00,
2013-03-19 15:09:00,24.8,3.4,29.22,NW,315,6.0,17.0,39,0.00,,,0.00,meteohub,2013-03-19 20:09:00,
2013-03-19 15:14:00,24.4,2.5,29.22,NW,315,6.0,17.0,38,0.00,,,0.00,meteohub,2013-03-19 20:14:00,
2013-03-19 15:19:00,24.4,3.6,29.25,West,270,8.0,17.0,40,0.00,,,0.00,meteohub,2013-03-19 20:19:00,
2013-03-19 15:24:00,25.0,3.6,29.25,West,270,6.0,15.0,39,0.00,,,0.00,meteohub,2013-03-19 20:24:00,
2013-03-19 15:29:00,24.8,3.4,29.25,WNW,292,16.0,16.0,39,0.00,,,0.00,meteohub,2013-03-19 20:29:00,
2013-03-19 15:34:00,24.3,2.3,29.22,WSW,248,15.0,17.0,38,0.00,,,0.00,meteohub,2013-03-19 20:34:00,
2013-03-19 15:40:00,24.3,2.8,29.22,WNW,292,9.0,17.0,39,0.00,,,0.00,meteohub,2013-03-19 20:40:00,
2013-03-19 15:45:00,25.2,3.7,29.22,WNW,292,9.0,17.0,39,0.00,,,0.00,meteohub,2013-03-19 20:45:00,
2013-03-19 15:50:00,24.4,2.5,29.22,WNW,292,14.0,15.0,38,0.00,,,0.00,meteohub,2013-03-19 20:50:00,
2013-03-19 15:55:00,24.4,3.0,29.22,West,270,10.0,15.0,39,0.00,,,0.00,meteohub,2013-03-19 20:55:00,
2013-03-19 16:00:00,25.7,4.8,29.22,WNW,292,10.0,16.0,40,0.00,,,0.00,meteohub,2013-03-19 21:00:00,
2013-03-19 16:05:00,25.3,3.4,29.25,NW,315,11.0,16.0,38,0.00,,,0.00,meteohub,2013-03-19 21:05:00,
2013-03-19 16:10:00,25.3,3.9,29.25,WNW,292,4.0,15.0,39,0.00,,,0.00,meteohub,2013-03-19 21:10:00,
2013-03-19 16:15:00,24.4,2.5,29.25,WNW,292,6.0,12.0,38,0.00,,,0.00,meteohub,2013-03-19 21:15:00,
2013-03-19 16:20:00,23.5,1.0,29.25,WSW,248,14.0,14.0,37,0.00,,,0.00,meteohub,2013-03-19 21:20:00,
2013-03-19 16:25:00,23.7,1.2,29.25,WNW,292,8.0,17.0,37,0.00,,,0.00,meteohub,2013-03-19 21:25:00,
2013-03-19 16:30:00,23.5,1.0,29.25,WNW,292,8.0,17.0,37,0.00,,,0.00,meteohub,2013-03-19 21:30:00,
2013-03-19 16:35:00,23.4,0.3,29.25,NNW,338,10.0,17.0,36,0.00,,,0.00,meteohub,2013-03-19 21:35:00,
2013-03-19 16:40:00,23.5,0.5,29.25,West,270,11.0,17.0,36,0.00,,,0.00,meteohub,2013-03-19 21:40:00,
2013-03-19 16:45:00,22.5,-0.4,29.28,WNW,292,6.0,17.0,36,0.00,,,0.00,meteohub,2013-03-19 21:45:00,
2013-03-19 16:50:00,22.8,0.0,29.28,WNW,292,6.0,15.0,36,0.00,,,0.00,meteohub,2013-03-19 21:50:00,
2013-03-19 16:55:00,22.5,-0.4,29.28,WNW,292,14.0,15.0,36,0.00,,,0.00,meteohub,2013-03-19 21:55:00,
2013-03-19 17:01:00,21.9,-1.5,29.25,WNW,292,10.0,17.0,35,0.00,,,0.00,meteohub,2013-03-19 22:01:00,
2013-03-19 17:06:00,22.8,-0.8,29.25,WNW,292,8.0,17.0,35,0.00,,,0.00,meteohub,2013-03-19 22:06:00,
2013-03-19 17:11:00,22.1,-2.0,29.25,NW,315,15.0,17.0,34,0.00,,,0.00,meteohub,2013-03-19 22:11:00,
2013-03-19 17:17:00,22.3,-1.8,29.28,WNW,292,6.0,17.0,34,0.00,,,0.00,meteohub,2013-03-19 22:17:00,
2013-03-19 17:22:00,22.8,-1.3,29.28,West,270,8.0,17.0,34,0.00,,,0.00,meteohub,2013-03-19 22:22:00,
2013-03-19 17:27:00,23.0,-1.1,29.28,NNW,338,9.0,17.0,34,0.00,,,0.00,meteohub,2013-03-19 22:27:00,
2013-03-19 17:32:00,23.0,-1.1,29.28,NNW,338,9.0,13.0,34,0.00,,,0.00,meteohub,2013-03-19 22:32:00,
2013-03-19 17:37:00,22.8,-0.8,29.28,WNW,292,8.0,13.0,35,0.00,,,0.00,meteohub,2013-03-19 22:37:00,
2013-03-19 17:42:00,21.9,-1.5,29.28,WNW,292,11.0,15.0,35,0.00,,,0.00,meteohub,2013-03-19 22:42:00,
2013-03-19 17:47:00,22.1,-2.0,29.28,WNW,292,11.0,15.0,34,0.00,,,0.00,meteohub,2013-03-19 22:47:00,
2013-03-19 17:52:00,21.4,-2.6,29.28,NW,315,6.0,15.0,34,0.00,,,0.00,meteohub,2013-03-19 22:52:00,
2013-03-19 17:57:00,21.0,-2.9,29.28,NW,315,11.0,14.0,34,0.00,,,0.00,meteohub,2013-03-19 22:57:00,
2013-03-19 18:02:00,21.2,-2.7,29.28,West,270,8.0,17.0,34,0.00,,,0.00,meteohub,2013-03-19 23:02:00,
2013-03-19 18:07:00,21.6,-1.8,29.28,WNW,292,9.0,17.0,35,0.00,,,0.00,meteohub,2013-03-19 23:07:00,
2013-03-19 18:13:00,21.2,-2.2,29.28,WNW,292,15.0,15.0,35,0.00,,,0.00,meteohub,2013-03-19 23:13:00,
2013-03-19 18:18:00,19.8,-3.5,29.25,WNW,292,8.0,15.0,35,0.00,,,0.00,meteohub,2013-03-19 23:18:00,
2013-03-19 18:23:00,19.4,-3.1,29.25,WNW,292,12.0,17.0,36,0.00,,,0.00,meteohub,2013-03-19 23:23:00,
2013-03-19 18:28:00,19.0,-2.9,29.25,West,270,11.0,17.0,37,0.00,,,0.00,meteohub,2013-03-19 23:28:00,
2013-03-19 18:33:00,18.3,-3.6,29.28,WNW,292,11.0,15.0,37,0.00,,,0.00,meteohub,2013-03-19 23:33:00,
2013-03-19 18:38:00,17.8,-3.5,29.28,WNW,292,9.0,16.0,38,0.00,,,0.00,meteohub,2013-03-19 23:38:00,
2013-03-19 18:43:00,17.4,-3.3,29.28,WNW,292,7.0,16.0,39,0.00,,,0.00,meteohub,2013-03-19 23:43:00,
2013-03-19 18:48:00,17.1,-3.6,29.28,ENE,68,9.0,17.0,39,0.00,,,0.00,meteohub,2013-03-19 23:48:00,
2013-03-19 18:53:00,17.1,-3.1,29.28,WNW,292,13.0,18.0,40,0.00,,,0.00,meteohub,2013-03-19 23:53:00,
2013-03-19 18:59:00,16.7,-2.9,29.28,NNW,338,5.0,18.0,41,0.00,,,0.00,meteohub,2013-03-19 23:59:00,
2013-03-19 19:04:00,16.5,-3.6,29.28,WNW,292,10.0,18.0,40,0.00,,,0.00,meteohub,2013-03-20 00:04:00,
2013-03-19 19:09:00,16.0,-3.5,29.28,WNW,292,13.0,15.0,41,0.00,,,0.00,meteohub,2013-03-20 00:09:00,
2013-03-19 19:14:00,15.6,-3.8,29.28,WNW,292,10.0,14.0,41,0.00,,,0.00,meteohub,2013-03-20 00:14:00,
2013-03-19 19:19:00,15.1,-3.8,29.31,WNW,292,6.0,15.0,42,0.00,,,0.00,meteohub,2013-03-20 00:19:00,
2013-03-19 19:24:00,14.7,-3.6,29.31,NNW,338,6.0,15.0,43,0.00,,,0.00,meteohub,2013-03-20 00:24:00,
2013-03-19 19:29:00,14.4,-3.5,29.31,WNW,292,18.0,18.0,44,0.00,,,0.00,meteohub,2013-03-20 00:29:00,
2013-03-19 19:34:00,14.2,-3.6,29.31,WSW,248,9.0,11.0,44,0.00,,,0.00,meteohub,2013-03-20 00:34:00,
2013-03-19 19:40:00,13.8,-4.0,29.31,WNW,292,4.0,18.0,44,0.00,,,0.00,meteohub,2013-03-20 00:40:00,
2013-03-19 19:45:00,13.6,-4.2,29.31,WNW,292,11.0,18.0,44,0.00,,,0.00,meteohub,2013-03-20 00:45:00,
2013-03-19 19:50:00,13.3,-4.5,29.31,West,270,9.0,13.0,44,0.00,,,0.00,meteohub,2013-03-20 00:50:00,
2013-03-19 19:55:00,12.9,-4.9,29.31,WSW,248,6.0,14.0,44,0.00,,,0.00,meteohub,2013-03-20 00:55:00,
2013-03-19 20:00:00,12.9,-4.9,29.31,West,270,9.0,14.0,44,0.00,,,0.00,meteohub,2013-03-20 01:00:00,
2013-03-19 20:05:00,12.6,-5.3,29.34,WNW,292,8.0,14.0,44,0.00,,,0.00,meteohub,2013-03-20 01:05:00,
2013-03-19 20:10:00,12.6,-5.3,29.34,NW,315,4.0,12.0,44,0.00,,,0.00,meteohub,2013-03-20 01:10:00,
2013-03-19 20:15:00,12.2,-5.4,29.34,WNW,292,8.0,12.0,44,0.00,,,0.00,meteohub,2013-03-20 01:15:00,
2013-03-19 20:21:00,12.0,-5.6,29.34,WNW,292,6.0,11.0,44,0.00,,,0.00,meteohub,2013-03-20 01:21:00,
2013-03-19 20:26:00,12.0,-5.6,29.34,WNW,292,8.0,11.0,44,0.00,,,0.00,meteohub,2013-03-20 01:26:00,
2013-03-19 20:31:00,12.0,-5.6,29.34,West,270,9.0,11.0,44,0.00,,,0.00,meteohub,2013-03-20 01:31:00,
2013-03-19 20:36:00,11.8,-5.8,29.34,WSW,248,6.0,13.0,44,0.00,,,0.00,meteohub,2013-03-20 01:36:00,
2013-03-19 20:41:00,11.5,-6.2,29.34,WNW,292,7.0,13.0,44,0.00,,,0.00,meteohub,2013-03-20 01:41:00,
2013-03-19 20:46:00,11.3,-6.3,29.34,WNW,292,10.0,10.0,44,0.00,,,0.00,meteohub,2013-03-20 01:46:00,
2013-03-19 20:52:00,11.3,-6.3,29.34,WNW,292,9.0,10.0,44,0.00,,,0.00,meteohub,2013-03-20 01:52:00,
2013-03-19 20:57:00,11.3,-6.3,29.34,West,270,12.0,13.0,44,0.00,,,0.00,meteohub,2013-03-20 01:57:00,
2013-03-19 21:02:00,11.1,-6.5,29.34,WNW,292,6.0,13.0,44,0.00,,,0.00,meteohub,2013-03-20 02:02:00,
2013-03-19 21:07:00,10.9,-6.7,29.34,NW,315,13.0,13.0,44,0.00,,,0.00,meteohub,2013-03-20 02:07:00,
2013-03-19 21:12:00,10.9,-6.7,29.34,WNW,292,8.0,12.0,44,0.00,,,0.00,meteohub,2013-03-20 02:12:00,
2013-03-19 21:17:00,10.8,-6.9,29.34,West,270,3.0,13.0,44,0.00,,,0.00,meteohub,2013-03-20 02:17:00,
2013-03-19 21:22:00,10.6,-7.1,29.34,WNW,292,6.0,13.0,44,0.00,,,0.00,meteohub,2013-03-20 02:22:00,
2013-03-19 21:27:00,10.4,-7.2,29.34,WNW,292,3.0,15.0,44,0.00,,,0.00,meteohub,2013-03-20 02:27:00,
2013-03-19 21:32:00,10.2,-7.4,29.36,West,270,8.0,15.0,44,0.00,,,0.00,meteohub,2013-03-20 02:32:00,
2013-03-19 21:37:00,10.2,-7.4,29.36,West,270,12.0,15.0,44,0.00,,,0.00,meteohub,2013-03-20 02:37:00,
2013-03-19 21:43:00,10.2,-7.4,29.36,WNW,292,12.0,12.0,44,0.00,,,0.00,meteohub,2013-03-20 02:43:00,
2013-03-19 21:48:00,10.2,-7.4,29.31,WNW,292,6.0,12.0,44,0.00,,,0.00,meteohub,2013-03-20 02:48:00,
2013-03-19 21:53:00,10.0,-7.4,29.31,WNW,292,4.0,12.0,44,0.00,,,0.00,meteohub,2013-03-20 02:53:00,
2013-03-19 21:58:00,10.0,-7.4,29.31,WNW,292,2.0,15.0,44,0.00,,,0.00,meteohub,2013-03-20 02:58:00,
2013-03-19 22:03:00,9.9,-7.6,29.34,WNW,292,6.0,15.0,44,0.00,,,0.00,meteohub,2013-03-20 03:03:00,
2013-03-19 22:08:00,10.0,-7.4,29.34,NW,315,7.0,15.0,44,0.00,,,0.00,meteohub,2013-03-20 03:08:00,
2013-03-19 22:13:00,9.7,-7.8,29.34,NW,315,8.0,13.0,44,0.00,,,0.00,meteohub,2013-03-20 03:13:00,
2013-03-19 22:18:00,9.9,-7.6,29.34,WSW,248,3.0,12.0,44,0.00,,,0.00,meteohub,2013-03-20 03:18:00,
2013-03-19 22:23:00,10.0,-7.4,29.34,WNW,292,6.0,12.0,44,0.00,,,0.00,meteohub,2013-03-20 03:23:00,
2013-03-19 22:28:00,9.9,-7.6,29.34,NW,315,8.0,15.0,44,0.00,,,0.00,meteohub,2013-03-20 03:28:00,
2013-03-19 22:33:00,9.7,-7.8,29.34,WNW,292,6.0,15.0,44,0.00,,,0.00,meteohub,2013-03-20 03:33:00,
2013-03-19 22:38:00,9.7,-7.8,29.34,NW,315,6.0,15.0,44,0.00,,,0.00,meteohub,2013-03-20 03:38:00,
2013-03-19 22:44:00,9.7,-7.8,29.34,NNW,338,4.0,13.0,44,0.00,,,0.00,meteohub,2013-03-20 03:44:00,
2013-03-19 22:49:00,9.7,-7.8,29.34,NNW,338,10.0,13.0,44,0.00,,,0.00,meteohub,2013-03-20 03:49:00,
2013-03-19 22:54:00,9.7,-7.8,29.34,West,270,6.0,14.0,44,0.00,,,0.00,meteohub,2013-03-20 03:54:00,
2013-03-19 22:59:00,9.5,-8.0,29.34,North,0,8.0,14.0,44,0.00,,,0.00,meteohub,2013-03-20 03:59:00,
2013-03-19 23:00:00,9.5,-8.0,29.34,NW,315,13.0,14.0,44,0.00,,,0.00,meteohub,2013-03-20 04:00:00,
2013-03-19 23:01:00,9.5,-8.0,29.31,WNW,292,6.0,14.0,44,0.00,,,0.00,meteohub,2013-03-20 04:01:00,
2013-03-19 23:06:00,9.5,-8.0,29.31,WNW,292,5.0,14.0,44,0.00,,,0.00,meteohub,2013-03-20 04:06:00,
2013-03-19 23:11:00,9.3,-8.1,29.31,WNW,292,8.0,14.0,44,0.00,,,0.00,meteohub,2013-03-20 04:11:00,
2013-03-19 23:17:00,9.3,-8.1,29.36,WNW,292,11.0,14.0,44,0.00,,,0.00,meteohub,2013-03-20 04:17:00,
2013-03-19 23:22:00,9.3,-8.1,29.36,WNW,292,9.0,13.0,44,0.00,,,0.00,meteohub,2013-03-20 04:22:00,
2013-03-19 23:27:00,9.1,-8.3,29.36,West,270,12.0,13.0,44,0.00,,,0.00,meteohub,2013-03-20 04:27:00,
2013-03-19 23:32:00,9.3,-8.1,29.34,WNW,292,11.0,13.0,44,0.00,,,0.00,meteohub,2013-03-20 04:32:00,
2013-03-19 23:37:00,9.1,-8.3,29.34,WNW,292,11.0,13.0,44,0.00,,,0.00,meteohub,2013-03-20 04:37:00,
2013-03-19 23:42:00,9.0,-8.5,29.34,WNW,292,6.0,13.0,44,0.00,,,0.00,meteohub,2013-03-20 04:42:00,
2013-03-19 23:47:00,8.8,-8.7,29.34,WNW,292,10.0,13.0,44,0.00,,,0.00,meteohub,2013-03-20 04:47:00,
2013-03-19 23:52:00,8.8,-8.7,29.34,WNW,292,10.0,13.0,44,0.00,,,0.00,meteohub,2013-03-20 04:52:00,
2013-03-19 23:57:00,8.8,-8.7,29.34,WNW,292,7.0,11.0,44,0.00,,,0.00,meteohub,2013-03-20 04:57:00,